Terminal Aerodrome Forecast
Issued by NWS

Home | Current Version | Previous Version | Text Only | Print | Product List | Glossary On
Versions: 1 2 3 4 5 6 7 8 9 10 11 12 13 14 15 16 17 18 19 20
000
FTUS41 KBGM 232300
TAFELM
TAF
KELM 232330Z 2400/2424 31005KT P6SM OVC035
      TEMPO 2400/2402 BKN025
     FM240500 31004KT P6SM BKN040
      TEMPO 2408/2412 2SM BR
     FM241500 35012KT P6SM BKN040=

USA.gov is the U.S. government's official web portal to all federal, state and local government web resources and services.